Terminal Aerodrome Forecast
Issued by NWS Charleston, SC

Home | Current Version | Previous Version | Text Only | Print | Product List | Glossary On
Versions: 1 2 3 4 5 6 7 8 9 10 11 12 13 14 15 16 17 18 19 20 21 22 23 24 25 26 27 28
000
FTUS42 KCHS 050528
TAFSAV
TAF
KSAV 050528Z 0506/0606 20007KT P6SM BKN070 WS015/21035KT
     FM050800 21006KT P6SM OVC012 WS015/24040KT
      TEMPO 0509/0512 OVC008
     FM051500 21013G21KT P6SM BKN050
     FM060000 34012G22KT 4SM -RA SCT006 BKN015
     FM060400 36012G18KT 5SM -DZ BR OVC006=

USA.gov is the U.S. government's official web portal to all federal, state and local government web resources and services.